{"data":{"norad_id":57365,"epoch":"2026-05-24T18:19:40.246464Z","epoch_age_seconds":96200,"freshness":"FRESH","line1":"1 57365U 23099AP  26144.76366026  .00000482  00000+0  27024-4 0  9994","line2":"2 57365  43.0029 172.0555 0001334 267.1398  92.9301 15.27577826157836","mean_motion":15.27577826,"eccentricity":0.0001334,"inclination_deg":43.0029,"raan_deg":172.0555,"arg_perigee_deg":267.1398,"mean_anomaly_deg":92.9301,"bstar":2.7024e-5,"rev_number":15783,"period_min":94.266882871079,"perigee_km":482.14032269185,"apogee_km":483.97088887908,"semimajor_km":6861.1926057855,"source":"CELESTRAK","updated_at":"2026-05-25T13:38:18.293676Z"}}